Cape Town, South Africa

9:54 PM SAST on October 22, 2017 (GMT +0200)
Cape Town

Weather History for FACT - February, 2013

Change the Weather History Date:

Wednesday, February 13, 2013

  Actual Average Record
Temperature  
Mean Temperature 72 °F -  
Max Temperature 80 °F 77 °F 78 °F (2016)
Min Temperature 63 °F 59 °F 57 °F (2015)
Cooling Degree Days 6    
Growing Degree Days 22 (Base 50)    
Moisture  
Dew Point 64 °F    
Average Humidity 75    
Maximum Humidity 94    
Minimum Humidity 57    
Precipitation  
Precipitation 0.00 in 0.02 in - ()
Sea Level Pressure  
Sea Level Pressure 29.78 in    
Wind  
Wind Speed 7 mph ()    
Max Wind Speed 17 mph    
Max Gust Speed -    
Visibility 7.1 miles    
Events Fog    
Averages and records for this station are not official NWS values.
T = Trace of Precipitation, MM = Missing Value Source: Averaged Metar Reports

Daily Weather History Graph

Daily Weather History Graph

Search for Another Location

Airport or City:

Trip Planner

Search our weather history database for the weather conditions in past years. The results will help you decide how hot, cold, wet, or windy it might be!

Date:

Astronomy

Feb. 13, 2013 Rise Set
Actual Time 6:18 AM SAST 7:40 PM SAST
Civil Twilight 5:52 AM SAST 8:06 PM SAST
Nautical Twilight 5:21 AM SAST 8:37 PM SAST
Astronomical Twilight 4:48 AM SAST 9:10 PM SAST
Moon 9:29 AM SAST (2/13) 9:19 PM SAST (2/13)
Length of Visible Light 14h 13m
Length of Day
13h 21m
Waxing Crescent, 11% of the Moon is Illuminated
Feb 13
Waxing Crescent
Feb 17
First Quarter
Feb 25
Full
Mar 4
Last Quarter
Mar 11
New

Hourly Weather History & Observations

Time (SAST) Temp. Dew Point Humidity Pressure Visibility Wind Dir Wind Speed Gust Speed Precip Events Conditions
12:00 AM 69.8 °F 64.4 °F 83% 29.77 in - ESE 3.5 mph - N/A   Clear
1:00 AM 69.8 °F 62.6 °F 78% 29.77 in - North 2.3 mph - N/A   Clear
2:00 AM 69 °F 63 °F 76% 29.76 in 12 mi WNW 2.3 mph - -  
2:00 AM 69.8 °F 62.6 °F 78% 29.74 in - WNW 2.3 mph - N/A   Clear
3:00 AM 68.0 °F 60.8 °F 78% 29.74 in - NW 5.8 mph - N/A   Clear
4:00 AM 68.0 °F 60.8 °F 78% 29.71 in - NNW 8.1 mph - N/A   Clear
5:00 AM 67 °F 60 °F 73% 29.74 in 12 mi NW 6.9 mph - -  
5:00 AM 66.2 °F 59.0 °F 78% 29.74 in - NW 6.9 mph - N/A   Clear
6:00 AM 64.4 °F 59.0 °F 83% 29.74 in - NNW 8.1 mph - N/A   Clear
7:00 AM 66.2 °F 62.6 °F 88% 29.77 in 5.0 mi NW 6.9 mph - N/A Fog Mostly Cloudy
8:00 AM 67 °F 65 °F 89% 29.79 in 0 mi NNW 9.2 mph - - Fog Heavy Fog
8:00 AM 66.2 °F 64.4 °F 94% 29.77 in 0.5 mi NNW 9.2 mph - N/A Fog Fog
9:00 AM 69.8 °F 64.4 °F 83% 29.77 in 3.7 mi NNW 8.1 mph - N/A   Mostly Cloudy
10:00 AM 73.4 °F 66.2 °F 78% 29.80 in 3.7 mi NW 8.1 mph - N/A   Mostly Cloudy
11:00 AM 76 °F 67 °F 66% 29.81 in 9 mi NNW 11.5 mph - -   Partly Cloudy
11:00 AM 75.2 °F 68.0 °F 78% 29.80 in 6.2 mi NW 9.2 mph - N/A   Partly Cloudy
12:00 PM 77.0 °F 66.2 °F 69% 29.80 in 6.2 mi NNW 9.2 mph - N/A   Partly Cloudy
1:00 PM 78.8 °F 66.2 °F 65% 29.77 in 6.2 mi NNW 11.5 mph - N/A   Partly Cloudy
2:00 PM 79 °F 67 °F 57% 29.78 in 12 mi NW 16.1 mph - -   Scattered Clouds
2:00 PM 78.8 °F 66.2 °F 65% 29.77 in 6.2 mi NW 10.4 mph - N/A   Partly Cloudy
3:00 PM 78.8 °F 62.6 °F 57% 29.77 in 6.2 mi NW 12.7 mph - N/A   Partly Cloudy
4:00 PM 78.8 °F 64.4 °F 61% 29.74 in 6.2 mi NNW 11.5 mph - N/A   Partly Cloudy
5:00 PM 77 °F 65 °F 59% 29.76 in 12 mi NNW 17.3 mph - -   Scattered Clouds
5:00 PM 77.0 °F 66.2 °F 69% 29.77 in 6.2 mi NNW 13.8 mph - N/A   Partly Cloudy
6:00 PM 77.0 °F 66.2 °F 69% 29.77 in 6.2 mi Variable 5.8 mph - N/A   Scattered Clouds
7:00 PM 73.4 °F 62.6 °F 69% 29.77 in 6.2 mi WSW 13.8 mph - N/A   Scattered Clouds
8:00 PM 71 °F 63 °F 68% 29.81 in 12 mi NNW 12.7 mph - -   Mostly Cloudy
8:00 PM 71.6 °F 62.6 °F 73% 29.80 in 6.2 mi NNW 10.4 mph - N/A   Mostly Cloudy
9:00 PM 69.8 °F 62.6 °F 78% 29.83 in 6.2 mi NW 10.4 mph - N/A   Mostly Cloudy
10:00 PM 68.0 °F 62.6 °F 83% 29.83 in 6.2 mi NNW 10.4 mph - N/A   Partly Cloudy
11:00 PM 67 °F 62 °F 81% 29.86 in 16 mi NNW 11.5 mph - -   Partly Cloudy
11:00 PM 68.0 °F 62.6 °F 83% 29.83 in 6.2 mi NNW 10.4 mph - N/A   Scattered Clouds